OBJECT AE, 64556

Orbit data source: Space-Track

You're viewing an Uncataloged Satellite

Recently launched and/or uncataloged satellites may have evolving metadata. Metadata may include but not limited to: Owner, Maufacturer, Bus, Motor, and Mission.

OBJECT AE, 64556 is a satellite in SSO that was launched on Mon, 23 Jun 2025 UTC via an FALCON 9 launch vehicle from the Air Force Western Test Range (AFWTR). Unknown objects in Earth's orbit typically refer to objects detected orbiting the Earth but have not yet been identified or cataloged. These objects could be anything from previously untracked satellites, spent rocket stages, debris from satellite collisions, or even natural meteoroids temporarily captured by Earth's gravity.

Loading next visibility...
Identifier
64556, 2025-135AE
Orbit
SSO
Country
Flag of TBDTBD
Related business
None
Manufacturer
Unknown
Mission
Operational Commercial Imaging
Bus & Motor
Unknown
Mass
Unknown
Launch date (UTC)
2025-06-23 (1 year ago)
Launch vehicle
FALCON 9
Launch site
Air Force Western Test Range (AFWTR)
Object type
Unknown
Shape & HBR
Box, 0.2 m
Radar Cross Section
0.080 m², Medium (>0.1 m² and < 1m²)

Expand to show TLE details & history
Last TLE update: 23 hours ago

TLE from 23 hours ago
0 OBJECT AE
1 64556U 25135AE  26207.26385329  .00009173  00000-0  35524-3 0  9999
2 64556  97.4771 323.8896 0000052 230.1666 129.9568 15.26397450 60900
Epoch: 2026-07-26T06:19Z
TLE epoch observation values (Epoch: 2026-07-26T06:19:56.924Z)
Latitude
0.00001°
Longitude
-75.06187°
Altitude
489.712 km
Speed
7.62 km/s
True Right ascension
21h 35m 33s
True Declination
0° 00' 00"
Sunlit
Object was in full shadow at epoch
Visualization orbit readout
Latitude
Unknown
Longitude
Unknown
Altitude
Unknown
Speed
Unknown
Apparent Right ascension
Unknown
Apparent Declination
Unknown
Sunlit
N/A
Visualization observer readout
Local Sidereal Time
18:22:20
Azimuth
Unknown
Elevation
Unknown
Doppler factor
Unknown
Orbital elements
Apogee altitude
483.588 km
Perigee altitude
483.517 km
Semi-major axis
6,861.69 km
Eccentricity
0.00001
Inclination
97.4771°
RAAN
323.8896°
Arg. of periapsis
230.1666°
True anomaly
129.95726°
Mean anomaly
129.9568°
Eccentric anomaly
129.95703°
Mean motion
3.81853 °/min
Orbital period
94.28 mins
BSTAR
0.00035524
Loading maneuver chart data...
Computing Atmospheric mass density...
Loading historical data...
Loading historical data...
Loading historical data...
Loading historical data...
Loading historical data...
Loading historical data...
Loading historical data...

Documentation

Showing up to 5 results
|